Niagara Falls, NY

8:42 AM EST on December 13, 2019 (GMT -0500)
Niagara Falls International

Weather History for KIAG - August, 2019

Change the Weather History Date:

Saturday, August 31, 2019

  Actual Average Record
Temperature  
Mean Temperature 61 °F -  
Max Temperature 71 °F 75 °F 90 °F (2010)
Min Temperature 52 °F 56 °F 35 °F (1997)
Degree Days  
Heating Degree Days 4    
Growing Degree Days 11 (Base 50)    
Moisture  
Dew Point 49 °F    
Average Humidity 65    
Maximum Humidity 86    
Minimum Humidity 39    
Precipitation  
Precipitation 0.00 in - - ()
Sea Level Pressure  
Sea Level Pressure 30.29 in    
Wind  
Wind Speed 3 mph ()    
Max Wind Speed 10 mph    
Max Gust Speed -    
Visibility 10.0 miles    
Events      
Averages and records for this station are not official NWS values.
T = Trace of Precipitation, MM = Missing Value Source: Averaged Metar Reports

Daily Weather History Graph

Daily Weather History Graph

Search for Another Location

Airport or City:

Astronomy

Aug. 31, 2019 Rise Set
Actual Time 6:38 AM EDT 7:52 PM EDT
Civil Twilight 6:09 AM EDT 8:22 PM EDT
Nautical Twilight 5:34 AM EDT 8:57 PM EDT
Astronomical Twilight 4:56 AM EDT 9:34 PM EDT
Moon 7:53 AM EDT (8/31) 9:02 PM EDT (8/31)
Length of Visible Light 14h 12m
Length of Day
13h 13m
New Moon, 2% of the Moon is Illuminated
Aug 31
New Moon
Sep 5
First Quarter
Sep 14
Full
Sep 21
Last Quarter
Sep 28
New

Hourly Weather History & Observations

Time (EDT) Temp. Dew Point Humidity Pressure Visibility Wind Dir Wind Speed Gust Speed Precip Events Conditions
12:53 AM 55.0 °F 50.0 °F 83% 30.18 in 10.0 mi Calm Calm - N/A   Clear
1:53 AM 54.0 °F 50.0 °F 86% 30.19 in 10.0 mi Calm Calm - N/A   Clear
2:53 AM 53.1 °F 48.9 °F 86% 30.19 in 10.0 mi Calm Calm - N/A   Clear
3:53 AM 54.0 °F 48.9 °F 83% 30.21 in 10.0 mi Calm Calm - N/A   Clear
4:53 AM 55.9 °F 51.1 °F 84% 30.23 in 10.0 mi North 3.5 mph - N/A   Clear
5:53 AM 54.0 °F 48.0 °F 80% 30.25 in 10.0 mi NNW 4.6 mph - N/A   Clear
6:53 AM 52.0 °F 46.9 °F 83% 30.27 in 10.0 mi Calm Calm - N/A   Clear
7:53 AM 57.9 °F 51.1 °F 78% 30.29 in 10.0 mi Calm Calm - N/A   Clear
8:53 AM 62.1 °F 53.1 °F 72% 30.30 in 10.0 mi NW 8.1 mph - N/A   Clear
9:53 AM 64.9 °F 53.1 °F 65% 30.31 in 10.0 mi NNE 5.8 mph - N/A   Partly Cloudy
10:05 AM 64.0 °F 53.1 °F 67% 30.31 in 10.0 mi NNW 9.2 mph - N/A   Mostly Cloudy
10:53 AM 64.0 °F 50.0 °F 60% 30.33 in 10.0 mi North 5.8 mph - N/A   Mostly Cloudy
11:00 AM 66.0 °F 51.1 °F 59% 30.32 in 10.0 mi NNE 4.6 mph - N/A   Partly Cloudy
11:53 AM 68.0 °F 50.0 °F 52% 30.33 in 10.0 mi NNE 5.8 mph - N/A   Mostly Cloudy
12:53 PM 69.1 °F 50.0 °F 51% 30.32 in 10.0 mi Variable 5.8 mph - N/A   Mostly Cloudy
1:53 PM 69.1 °F 48.9 °F 49% 30.32 in 10.0 mi NNW 6.9 mph - N/A   Scattered Clouds
2:53 PM 69.1 °F 48.0 °F 47% 30.31 in 10.0 mi North 6.9 mph - N/A   Scattered Clouds
3:53 PM 70.0 °F 46.9 °F 44% 30.31 in 10.0 mi North 10.4 mph - N/A   Clear
4:53 PM 70.0 °F 44.1 °F 39% 30.30 in 10.0 mi North 5.8 mph - N/A   Clear
5:53 PM 69.1 °F 46.0 °F 44% 30.31 in 10.0 mi NNW 5.8 mph - N/A   Clear
6:53 PM 68.0 °F 45.0 °F 43% 30.31 in 10.0 mi North 5.8 mph - N/A   Clear
7:53 PM 63.0 °F 46.0 °F 54% 30.31 in 10.0 mi NE 4.6 mph - N/A   Clear
8:53 PM 62.1 °F 48.0 °F 60% 30.30 in 10.0 mi ENE 3.5 mph - N/A   Clear
9:53 PM 59.0 °F 48.9 °F 69% 30.31 in 10.0 mi ENE 3.5 mph - N/A   Clear
10:53 PM 57.9 °F 48.0 °F 70% 30.31 in 10.0 mi Calm Calm - N/A   Clear
11:53 PM 55.0 °F 48.0 °F 77% 30.30 in 10.0 mi East 4.6 mph - N/A   Clear